www.pogodaiklimat.ru

Погода и климат >> Архив погоды >> Малайзия >> Sitiawan


ПОГОДА в Sitiawan

  • Прогноз погоды в Sitiawan
  • Монитор погоды в Sitiawan
  • Климат города

АРХИВ ПОГОДЫ в Sitiawan

Время (UTC), дата Ветер
(напр.,м/с)
 
Видим.   Явления Облачность Т
(С)
Тd
(С)
f
(%)
Тe
(С)
Тes
(С)
Комфортность P
(гПа)
Po
(гПа)
Тmin
(С)
Tmax
(С)
R
(мм)
R24
(мм)
S
(см)
06 20.05 Ю 2 13 км мгла 9/4 500 м
[Cb cap Ac lent Ci sp]
+32.0 +25.5 69 +47 +54 опасность
перегрева
1007.2 1006.3
09 20.05 ЮЗ 3 15 км мгла 9/1 750 м
[Cu hum Ac lent Cs]
+31.8 +25.3 69 +46 +49 опасность
перегрева
1005.2 1004.3
12 20.05 ЮЗ 1 12 км мгла 9/3 960 м
[Sc Ac lent Cs]
+29.1 +25.9 83 +44 +44 опасность
перегрева
1005.7 1004.8 +33.1
15 20.05 В 1 12 км мгла 9/3 960 м
[Sc Ac lent Cs]
+28.1 +26.1 89 +42 +42 опасность
перегрева
1007.7 1006.8
18 20.05 штиль 0 10 км мгла 9/4 960 м
[Sc Ac trans Cs]
+27.5 +26.1 92 +41 +41 опасность
перегрева
1007.7 1006.8
21 20.05 СЗ 1 9000 м гроза без осадков {дождь} 9/5 500 м
[Cb cap Ac lent Cs]
+26.6 +25.7 95 +39 +39 очень
душно
1007.0 1006.1
00 21.05 С 1 9000 м в посл. час гроза {дождь} 9/5 500 м
[Cb cap Ac trans Cs]
+25.9 +24.9 94 +37 +37 очень
душно
1008.4 1007.5 +25.3 0.0
03 21.05 В 1 9000 м мгла 9/4 600 м
[Cu med, cong Ac trans Ci sp]
+30.6 +26.1 77 +46 +52 опасность
перегрева
1009.3 1008.4
06 21.05 Ю 3 11 км мгла 9/5 500 м
[Cb calv Ac trans Cs]
+30.0 +25.4 76 +44 +49 опасность
перегрева
1008.0 1007.1
09 21.05 З 2 12 км мгла {гроза, дождь} 9/4 500 м
[Cb cap Ac lent Cs]
+29.3 +25.5 80 +43 +45 опасность
перегрева
1005.2 1004.3
12 21.05 штиль 0 12 км зарница {гроза, дождь} 9/3 500 м
[Cb cap Ac lent Cs]
+28.3 +25.4 84 +41 +41 опасность
перегрева
1006.4 1005.5 +31.8 0.0
15 21.05 СВ 1 11 км мгла 9/1 1000 м
[Sc Ac trans Ci sp]
+26.5 +25.3 93 +38 +38 очень
душно
1008.4 1007.5
18 21.05 штиль 0 8000 м мгла 8/3 180 м
[St Ac trans Ci fib]
+26.1 +25.2 95 +38 +38 очень
душно
1008.2 1007.3
21 21.05 ЮВ 1 8000 м мгла 9/4 150 м
[Sc Ac trans Ci sp]
+25.8 +24.8 94 +37 +37 очень
душно
1007.5 1006.6
00 22.05 штиль 0 8000 м мгла 9/3 500 м
[Cb cap Ac lent Ci sp]
+25.8 +24.9 95 +37 +37 очень
душно
1008.9 1008.0 +25.4 0.0
03 22.05 В 1 10 км мгла 9/4 500 м
[Cb cap Ac lent Cs]
+29.4 +25.7 81 +44 +50 опасность
перегрева
1009.7 1008.8
06 22.05 ЮЗ 2 11 км мгла 9/4 500 м
[Cb cap Ac lent Cs]
+31.2 +24.6 68 +44 +51 опасность
перегрева
1007.5 1006.6
09 22.05 З 3 12 км мгла 9/4 500 м
[Cb cap Ac trans Ci sp]
+31.3 +24.7 68 +44 +46 опасность
перегрева
1005.0 1004.1
12 22.05 штиль 0 10 км гроза без осадков 9/4 500 м
[Cb cap Ac trans Ci sp]
+28.8 +25.4 82 +42 +42 опасность
перегрева
1007.4 1006.5 +32.5
15 22.05 В 1 9000 м слабый ливневой дождь, в посл. час гроза 10/5 500 м
[Cb cap As op Cs]
+25.7 +24.9 95 +36 +36 очень
душно
1010.0 1009.1
18 22.05 В 1 8000 м дымка {гроза, дождь} 9/3 240 м
[Sc Ac lent Cs]
+25.5 +24.7 95 +36 +36 очень
душно
1008.9 1008.0 2
21 22.05 штиль 0 7000 м зарница 9/3 180 м
[Cb cap Ac trans Ci sp]
+25.0 +24.2 95 +34 +34 очень
душно
1007.3 1006.4
00 23.05 штиль 0 9000 м мгла 9/4 500 м
[Cb cap Ac trans Ci sp]
+25.2 +24.3 95 +35 +35 очень
душно
1008.5 1007.6 +24.6 2
03 23.05 Ю 1 14 км мгла 9/4 500 м
[Cb cap Ac trans Ci sp]
+30.8 +25.2 72 +45 +50 опасность
перегрева
1009.8 1008.9
06 23.05 Ю 3 14 км мгла 9/4 500 м
[Cb cap Ac lent Ci sp]
+31.6 +23.7 63 +43 +49 опасность
перегрева
1007.8 1006.9
09 23.05 Ю 2 12 км мгла 9/4 500 м
[Cb cap Ac und Ci ing]
+29.9 +25.0 75 +43 +45 опасность
перегрева
1006.2 1005.3
12 23.05 В 1 9000 м в посл. час гроза {дождь} 9/4 500 м
[Cb cap Ac und Cs]
+27.5 +25.7 90 +41 +41 опасность
перегрева
1007.3 1006.4 +31.9 0.2
15 23.05 В 1 9000 м мгла 9/3 960 м
[Sc Ac trans Cs]
+26.0 +25.1 95 +37 +37 очень
душно
1009.4 1008.5
18 23.05 ЮВ 1 9000 м мгла 9/4 960 м
[Sc Ac trans Cs]
+26.0 +24.3 90 +36 +36 очень
душно
1008.7 1007.8
21 23.05 В 1 9000 м мгла 9/4 900 м
[Sc Ac trans Cs]
+25.2 +24.3 95 +35 +35 очень
душно
1006.7 1005.8
00 24.05 штиль 0 9000 м осадки на расстоянии 9/4 500 м
[Cb cap Ac und Ci ing]
+25.0 +24.1 95 +34 +35 очень
душно
1008.2 1007.3 +24.7 0.2
03 24.05 ЮВ 2 11 км осадки на расстоянии 9/4 500 м
[Cb cap Ac trans Ci ing]
+28.8 +24.5 78 +41 +46 опасность
перегрева
1009.6 1008.7
06 24.05 Ю 1 12 км мгла 9/5 600 м
[Cu Sc Ac trans Ci sp]
+30.7 +24.9 71 +44 +51 опасность
перегрева
1007.8 1006.9
09 24.05 Ю 2 11 км мгла 9/3 500 м
[Cb cap Ac lent Cs]
+30.6 +25.4 74 +45 +48 опасность
перегрева
1005.4 1004.5
12 24.05 Ю 1 9000 м мгла 9/3 960 м
[Sc Ac trans Cs]
+29.0 +25.6 82 +43 +43 опасность
перегрева
1007.4 1006.5 +31.5
15 24.05 штиль 0 9000 м мгла 9/3 1000 м
[Sc Ac lent Ci sp]
+27.6 +26.1 92 +42 +42 опасность
перегрева
1010.1 1009.2
18 24.05 штиль 0 8000 м мгла 9/4 210 м
[St Ac trans Ci sp]
+26.7 +25.6 94 +39 +39 очень
душно
1008.5 1007.6
21 24.05 В 1 8000 м зарница 9/4 500 м
[Cb cap Ac trans Cs]
+25.7 +24.3 92 +36 +36 очень
душно
1007.3 1006.4
00 25.05 штиль 0 8000 м мгла 9/3 600 м
[Cu Sc Ac trans Ci sp]
+25.4 +24.1 93 +35 +36 очень
душно
1007.9 1007.0 +25.0
03 25.05 В 1 9000 м мгла 9/5 600 м
[Cu med, cong Ac trans Ci sp]
+30.6 +25.6 75 +45 +50 опасность
перегрева
1008.6 1007.7
06 25.05 Ю 3 12 км мгла 9/4 540 м
[Cu med, cong Ac trans Ci sp]
+31.0 +25.4 72 +45 +51 опасность
перегрева
1007.1 1006.2
09 25.05 З 2 12 км гроза без осадков 9/4 480 м
[Cb cap Ac cuf Ci sp]
+31.9 +25.4 69 +46 +49 опасность
перегрева
1005.0 1004.1
12 25.05 штиль 0 9000 м слабый ливневой дождь, в посл. час гроза 9/4 500 м
[Cb cap Ac trans Cs]
+28.9 +26.3 86 +44 +44 опасность
перегрева
1006.7 1005.8 +32.6 0.8
15 25.05 СВ 2 9000 м мгла {дождь} 9/3 900 м
[Sc Ac trans Cs]
+27.6 +26.0 91 +41 +41 опасность
перегрева
1009.3 1008.4
18 25.05 СВ 1 7000 м мгла 9/3 960 м
[Sc Ac lent Ci sp]
+26.3 +25.1 93 +38 +38 очень
душно
1008.2 1007.3 0.0
21 25.05 штиль 0 6000 м зарница 9/5 210 м
[Cb cap Ac lent Ci sp]
+25.6 +24.3 93 +36 +36 очень
душно
1007.2 1006.3
00 26.05 штиль 0 9000 м мгла 9/4 500 м
[Cb calv Ac trans Ci sp]
+26.3 +25.0 93 +38 +38 очень
душно
1008.6 1007.7 +25.4 0.6
03 26.05 СЗ 2 11 км осадки на расстоянии 9/4 500 м
[Cb cap Ac trans Ci sp]
+30.7 +25.3 73 +45 +49 опасность
перегрева
1010.4 1009.5
06 26.05 З 4 12 км мгла 9/4 500 м
[Cb cap Ac trans Ci ing]
+31.8 +25.3 69 +46 +51 опасность
перегрева
1008.4 1007.5
09 26.05 СЗ 4 7000 м слабый дождь 9/8 60 м
[Cb cap Ac lent Cs]
+27.3 +25.1 88 +39 +40 очень
душно
1006.9 1006.0
12 26.05 С 2 7000 м дождь 10/5 90 м
[Sc As op Cs]
+25.5 +24.5 94 +36 +36 очень
душно
1009.2 1008.3 +32.2 10
15 26.05 СВ 1 6000 м в посл. час дождь 10/5 120 м
[Sc Ac lent Cs]
+24.9 +24.2 96 +34 +34 очень
душно
1011.8 1010.9
18 26.05 штиль 0 6000 м дымка {дождь} 9/5 150 м
[Sc Ac trans Cs]
+24.8 +24.1 96 +34 +34 очень
душно
1009.6 1008.7 6
21 26.05 В 1 7000 м дымка 9/4 210 м
[St Ac trans Cs]
+24.3 +23.6 96 +33 +33 очень
душно
1008.0 1007.1
00 27.05 В 1 8000 м дымка 9/3 1000 м
[Sc Ac lent Ci sp]
+24.2 +23.7 97 +33 +33 очень
душно
1009.1 1008.2 +23.9 16
03 27.05 СВ 1 10 км мгла 9/3 600 м
[Cu hum Ac lent Ci sp]
+28.1 +24.9 83 +40 +47 очень
душно
1010.6 1009.7

 

Местоположение метеостанции Sitiawan (Малайзия): широта 4.22 долгота 100.70 высота над уровнем моря 8 м.

В архиве по умолчанию представлена погода в Sitiawan за последнюю неделю. Архивные данные за месяц целиком и за предыдущие месяцы, начиная с января 2011 года, Вы можете получить, выбрав интересующий диапазон дат из раскрывающегося списка и нажав кнопку "Ввод!".


*Определитесь, кто Вы:
робот инопланетянин человек

Внимание! Время в таблицах - всемирное. Для получения местного времени необходимо прибавить поправку, которая в Sitiawan равна 7 ч.

Смотрите также архив погоды в соседних городах и на ближайших метеорологических станциях:

Погода в Ipoh (Малайзия) (59 км)
Погода в Cameron Highlands (Малайзия) (79 км)
Погода в Penang (Малайзия) (130 км)
Погода в Butterworth Air Base (Малайзия) (143 км)
Погода в Kuala Lumpur (Малайзия) (155 км)
Погода в Kuala Lumpur Int Airport (Малайзия) (200 км)
Погода в Alor Star (Малайзия) (223 км)
Погода в Belawan (Индонезия) (227 км)
Погода в Medan Polonia Int Airport (Индонезия) (236 км)
Погода в Langkawi (Малайзия) (258 км)

Пояснения к столбцам:

Ветер - указаны скорость ветра в м/с - средняя за 10 мин, порывы в срок и между сроками (в фигурных скобках) и направление, откуда дует ветер: С - северный, СВ - северо-восточный, В - восточный, ЮВ - юго-восточный, Ю - южный, ЮЗ - юго-западный, З - западный, СЗ - северо-западный.
Видимость - горизонтальная дальность видимости в метрах или километрах. При видимости от 1 до 10 км при отсутствии осадков обычно наблюдается дымка, при ухудшении видимости до 1 км и менее - туман. В сухую погоду видимость может ухудшаться дымом, пылью или мглою.
Явления - указаны атмосферные явления, наблюдавшиеся в срок или в последний час перед сроком; фигурными скобками обозначены явления, наблюдавшиеся между сроками (за 1-3 часа до срока); квадратными скобками обозначены град или гололедные отложения с указанием их диаметра в мм.
Облачность - указаны через наклонную черту общая и нижняя облачность в баллах и высота нижней границы облаков в метрах; квадратными скобками обозначены формы облаков: Ci - перистые, Cs - перисто-слоистые, Cc - перисто-кучевые, Ac - высококучевые, As - высокослоистые, Sc - слоисто-кучевые, Ns - слоисто-дождевые, Cu - кучевые, Cb - кучево-дождевые. Подробнее классификацию облаков см. в Атласе облаков (PDF).
T - Температура воздуха - температура, измеренная на высоте 2 м над землей.
Td - Температура точки росы - температура, при понижении до которой содержащийся в воздухе водяной пар достигнет насыщения.
f - Относительная влажность воздуха - влажноcть воздуха, измеренная на высоте 2 м над землей.
Te - Эффективная температура - температура, которую ощущает одетый по сезону человек в тени. Характеристика душности погоды. При расчете учитывается влияние влажности воздуха и скорости ветра на теплоощущения человека.
Tes - Эффективная температура на солнце - температура, которую ощущает человек, с поправкой на солнечный нагрев. Характеристика знойности погоды. Зависит от высоты солнца над горизонтом, облачности и скорости ветра. Ночью, в пасмурную погоду, а также при ветре 12 м/с и более поправка равна нулю.
P - Атмосферное давление - приведенное к уровню моря атмосферное давление.
Po - Атмосферное давление - измеренное на уровне метеостанции атмосферное давление.
Tmin - Минимальная температура - минимум температуры воздуха на высоте 2 м над землей.
Tmax - Максимальная температура - максимум температуры воздуха на высоте 2 м над землей.
R - Количество осадков - Количество выпавших осадков за период времени, мм. При наведении курсора мыши на число - период времени, за который выпало указанное количество осадков.
R24 - Количество осадков - Количество выпавших осадков за 24 часа, мм.
S - Снежный покров - Высота снежного покрова, см. При наведении курсора мыши на число - состояние снежного покрова и степень покрытия местности в баллах.